Flag for Japan Weather past 2 weeks in Sendai, Japan

46 °F

Passing clouds.

Feels Like: 45 °F
Forecast: 42 / 50 °F
Wind: 3 mph from Southwest

Location: Sendai Airport

Current Time: Nov 27, 2015 at 4:54:53 AM

Latest Report: Nov 26, 2015 at 9:00 PM

Visibility: N/A

Pressure: 29.65 "Hg

Humidity: 93%

Dew point: 45 °F

Location of SendaiLocation

Historic Weather in Sendai — Graph


Sendai temperature yesterday

Maximum temperature yesterday: 48 °F (at 4:00 PM)
Minimum temperature yesterday: 39 °F (at 6:00 AM)
Average temperature yesterday: 45 °F

Past Weeks' High & Low Weather Summary

High68 °F (Nov 15, 3:00 PM)100% (Nov 14, 6:00 AM)30.54 "Hg (Nov 14, 6:00 AM)
Low36 °F (Nov 25, 8:00 PM)38% (Nov 12, 11:00 AM)29.65 "Hg (Nov 26, 8:00 PM)
Average52 °F77%30.16 "Hg
* Reported Nov 11 9:00 PM — Nov 26 9:00 PM, Sendai, Weather by CustomWeather, © 2015

Note: Actual official high and low records may vary slightly from our data, if they occured in-between our weather recording intervals... More about our weather records


Sendai weather history for previous 24 hours

Time TempWeatherWind HumidityBarometerVisibility
9:00 PM
Thu, Nov 26
46 °FPassing clouds.3 mph93%29.65 "HgN/A
8:00 PM46 °FSprinkles. Partly cloudy.5 mph100%29.65 "HgN/A
7:00 PM46 °FSprinkles. Partly cloudy.3 mph100%29.68 "HgN/A
6:00 PM48 °FSprinkles. Passing clouds.1 mph94%29.68 "Hg4 mi
5:00 PM48 °FSprinkles. Fog.7 mph100%29.68 "Hg3 mi
4:00 PM48 °FSprinkles. Fog.9 mph94%29.68 "Hg2 mi
3:00 PM46 °FDrizzle. Fog.7 mph100%29.68 "Hg3 mi
2:00 PM46 °FDrizzle. Partly sunny.6 mph100%29.68 "Hg4 mi
1:00 PM46 °FLight rain. Partly sunny.9 mph93%29.71 "Hg5 mi
12:00 PM45 °FLight rain. Broken clouds.10 mph93%29.74 "HgN/A
11:00 AM43 °FLight rain. Broken clouds.8 mph100%29.77 "HgN/A
10:00 AM43 °FLight rain. Broken clouds.9 mph93%29.83 "HgN/A
9:00 AM41 °FLight rain. Partly sunny.7 mph100%29.86 "Hg5 mi
8:00 AM41 °FLight rain. Partly sunny.8 mph93%29.89 "Hg5 mi
7:00 AM41 °FLight rain. Partly sunny.9 mph93%29.89 "HgN/A
6:00 AM39 °FLight rain. Passing clouds.7 mph93%29.92 "HgN/A
Weather by CustomWeather, © 2015

See weather overviewHow to use our weather pages